[TLELIST] Archives

 

[list_settings.list_name] Current TLEs

February 25th 2010 PST

HST 1 20580U 90037B 10055.27442010 .00000629 00000-0 35420-4 0 5244 2 20580 028.4705 256.9450 0003752 082.1985 277.9017 15.00905860887767 ISS (ZARYA) 1 25544U 98067A 10055.43913953 .00013376 00000-0 98602-4 0 6422 2 25544 051.6461 089.4056 0007076 339.8613 161.6527 15.73376606645715 CXO 1 25867U 99040B 10055.33333333 -.00000153 00000-0 10000-3 0 4321 2 25867 066.5880 058.9371 7977638 275.2349 355.9603 00.37802333 5965 ____________________________________________________________________ These 2-Line ...Continue Reading

[list_settings.list_name] Current TLEs

February 24th 2010 PST

HST 1 20580U 90037B 10054.21048851 .00000640 00000-0 36282-4 0 5220 2 20580 028.4697 263.8864 0003501 069.2732 290.8231 15.00904731887602 ISS (ZARYA) 1 25544U 98067A 10054.35343256 .00013035 00000-0 96339-4 0 6354 2 25544 051.6467 094.9773 0006685 335.4325 132.3871 15.73345973645546 CXO 1 25867U 99040B 10052.70833333 -.00000142 00000-0 10000-3 0 4311 2 25867 066.5768 059.0417 7973819 275.2744 358.4914 00.37800699 5954 ____________________________________________________________________ These 2-Line ...Continue Reading

[list_settings.list_name] Current TLEs

February 23rd 2010 PST

HST 1 20580U 90037B 10053.01356447 .00000718 00000-0 42283-4 0 5202 2 20580 028.4700 271.7075 0003396 058.3717 301.7133 15.00904189887423 ISS (ZARYA) 1 25544U 98067A 10053.21030145 .00011752 00000-0 87418-4 0 6271 2 25544 051.6480 100.8421 0006776 327.7301 141.0461 15.73314996645360 CXO 1 25867U 99040B 10052.70833333 -.00000142 00000-0 10000-3 0 4311 2 25867 066.5768 059.0417 7973819 275.2744 358.4914 00.37800699 5954 ____________________________________________________________________ These 2-Line ...Continue Reading

[list_settings.list_name] Current TLEs

February 22nd 2010 PST

HST 1 20580U 90037B 10052.01612893 .00000777 00000-0 46785-4 0 5195 2 20580 028.4708 278.2173 0003199 047.5127 312.5788 15.00903587887278 ISS (ZARYA) 1 25544U 98067A 10052.39811343 .00073456 00000-0 51927-3 0 6214 2 25544 051.6466 105.0075 0007122 323.8288 221.6961 15.73308783645236 CXO 1 25867U 99040B 10052.70833333 -.00000142 00000-0 10000-3 0 4311 2 25867 066.5768 059.0417 7973819 275.2744 358.4914 00.37800699 5954 ____________________________________________________________________ These 2-Line ...Continue Reading

[list_settings.list_name] Current TLEs

February 21st 2010 PST

HST 1 20580U 90037B 10050.08775190 .00000779 00000-0 46916-4 0 5187 2 20580 028.4704 290.8093 0003208 028.1865 331.9056 15.00901329886982 ISS (ZARYA) 1 25544U 98067A 10051.42972957 .00038946 00000-0 25217-3 0 6157 2 25544 051.6455 109.9789 0012239 358.4181 094.8450 15.75546125645082 CXO 1 25867U 99040B 10047.41666667 -.00000110 +00000-0 +10000-3 0 04299 2 25867 066.5432 059.3316 7971227 275.2523 358.1045 00.37808571005936 ____________________________________________________________________ These 2-Line ...Continue Reading

[list_settings.list_name] Current TLEs

February 20th 2010 PST

HST 1 20580U 90037B 10050.08775190 .00000779 00000-0 46916-4 0 5187 2 20580 028.4704 290.8093 0003208 028.1865 331.9056 15.00901329886982 ISS (ZARYA) 1 25544U 98067A 10050.41759817 .00005670 00000-0 40640-4 0 6092 2 25544 051.6471 115.1892 0012770 353.1274 115.6190 15.75453314644921 CXO 1 25867U 99040B 10047.41666667 -.00000110 +00000-0 +10000-3 0 04299 2 25867 066.5432 059.3316 7971227 275.2523 358.1045 00.37808571005936 ____________________________________________________________________ These 2-Line ...Continue Reading

[list_settings.list_name] Current TLEs

February 19th 2010 PST

HST 1 20580U 90037B 10047.16192774 +.00000648 +00000-0 +36922-4 0 05173 2 20580 028.4704 309.9015 0003209 357.0922 002.9784 15.00896951886546 ISS (ZARYA) 1 25544U 98067A 10049.46008642 -.00050513 00000-0 -32189-3 0 6050 2 25544 051.6504 120.1161 0013359 347.5562 086.8830 15.75430691644770 CXO 1 25867U 99040B 10047.41666667 -.00000110 +00000-0 +10000-3 0 04299 2 25867 066.5432 059.3316 7971227 275.2523 358.1045 00.37808571005936 ____________________________________________________________________ These 2-Line ...Continue Reading

[list_settings.list_name] Current TLEs

February 18th 2010 PST

HST 1 20580U 90037B 10042.17471048 .00000446 00000-0 21339-4 0 5153 2 20580 028.4707 342.4565 0003224 297.8634 062.1676 15.00891604885793 ISS (ZARYA) 1 25544U 98067A 10043.43102182 .00019994 00000-0 12992-3 0 5667 2 25544 051.6445 151.1609 0011006 318.8744 085.0717 15.75896363643827 CXO 1 25867U 99040B 10044.79166667 -.00000230 00000-0 10000-3 0 4284 2 25867 066.5293 059.4371 7967875 275.2402 000.7950 00.37806280 5922 ____________________________________________________________________ These 2-Line ...Continue Reading

[list_settings.list_name] Current TLEs

February 17th 2010 PST

HST 1 20580U 90037B 10042.17471048 .00000446 00000-0 21339-4 0 5153 2 20580 028.4707 342.4565 0003224 297.8634 062.1676 15.00891604885793 ISS (ZARYA) 1 25544U 98067A 10043.43102182 .00019994 00000-0 12992-3 0 5667 2 25544 051.6445 151.1609 0011006 318.8744 085.0717 15.75896363643827 CXO 1 25867U 99040B 10044.79166667 -.00000230 00000-0 10000-3 0 4284 2 25867 066.5293 059.4371 7967875 275.2402 000.7950 00.37806280 5922 ____________________________________________________________________ These 2-Line ...Continue Reading

[list_settings.list_name] Current TLEs

February 16th 2010 PST

HST 1 20580U 90037B 10042.17471048 .00000446 00000-0 21339-4 0 5153 2 20580 028.4707 342.4565 0003224 297.8634 062.1676 15.00891604885793 ISS (ZARYA) 1 25544U 98067A 10043.43102182 .00019994 00000-0 12992-3 0 5667 2 25544 051.6445 151.1609 0011006 318.8744 085.0717 15.75896363643827 CXO 1 25867U 99040B 10044.79166667 -.00000230 00000-0 10000-3 0 4284 2 25867 066.5293 059.4371 7967875 275.2402 000.7950 00.37806280 5922 ____________________________________________________________________ These 2-Line ...Continue Reading
  • This mailing list is a public mailing list - anyone may join or leave, at any time.
  • This mailing list is announce-only.

International Space Station (ISS) / Hubble Space Telescope (HST) / Chandra X-Ray Observatory Orbital Data via EMAIL

Privacy Policy:

Private list